Find Starlink 31515

NORAD ID: 59476 Int'l Des: 2024-068 Owner: SPXS Country: US Constellation: starlink operational
LEOCIRCULAR

实时位置

正在加载3D地球...

关于 Starlink 31515

正在加载描述...

即将过境

Passes for default location (London). Set your location on the main map for personalized predictions.

高度历史

Loading altitude history...

两行轨道根数

1 59476U 24068X 26124.86075498 .00000976 00000-0 45004-4 0 9992
2 59476 43.0047 77.2615 0001104 260.3679 99.7048 15.27570414117112
Epoch: May 4, 2026 • Age: 6 hours

当前状态

高度 483.4 km
速度 7.63 km/s
星下点 24.72°N, 164.35°W
发射日期 Apr 10, 2024
运行时间 2 years
类型 internet

技术详情

分类 Payload
质量 730.00 kg
干质量 700.00 kg
总质量 730.00 kg
长度 0.30 m
直径 4.10 m
跨度 29.00 m
形状 Box + pan
制造商 SPXS
平台类型 Starlink V2M
阶段状态 In Orbit
所有者/国家 SPXS/US

Most Searched